Погода в Одессе

Погода в Одессе : погода сейчас, прогноз погоды и архив. Всё, что Вы хотите узнать о погоде в Одессе!

Хотите узнать прогноз погоды в Одессе? Тогда Вам сюда: Погода в Одессе

Поиск расширенной информации на нашем сайте:

Другие новости

Новости СМИ2

Главная страница сайта

Новости сайта

03.07.2017

Напоминаем, что на нашем специализированном сайте Метеоцентр.Азия вы можете получить высокодетализированные автоматические прогнозы погоды по пунктам России, СНГ и мира в авиационном формате (включающие направление и скорость ветра, видимость, явления погоды, количество и форму облачности, нижнюю и верхнюю границу облачности).


Погода в Одессе - сегодня

Время (UTC), дата Ветер
(°,м/с) 
Видим.   Явления Облачность Т
(°С)
Тd
(°С)
f(%) Тe
(°С)
Pmin
(гПа)
dP
(гПа)
Po
(мм)
O2
(г/м3)
Тmin Tmax R s Состояние
почвы
12 15.06.18 120 (ЮВ) 35000 м    9/3 600 м верхняя 
[Cu hum|Ci sp]
+28.1 +16.1 48 +39  1006.3  -0.5  751  271           
15 15.06.18 190 (Ю) 45000 м    9/1 600 м верхняя 
[Cu hum|Ci fib]
+31.7 +11 28 +34  1005.1  -1.1  750  269           
18 15.06.18 тихо ()   25000 м    10/8 600 м верхняя 
[Cu med, cong|Ci fib]
+26.5 +12.6 42 +31  1005.4  0.2  750  273    +31.7       
21 15.06.18 280 (З) 23000 м    8/3 600 м средняя, верхняя 
[Cu hum|Ac und|Ci fib]
+24.5 +14.3 53 +32  1005.8  0.4  751  275           
00 16.06.18 320 (СЗ) 26000 м    8/4 600 м средняя, верхняя 
[Cu hum|Ac und|Ci fib]
+23.6 +17.4 68 +37  1005.7  -0.1  751  275           
03 16.06.18 010 (С) 25000 м    9/0 средняя, верхняя 
[Ac und|Ci sp]
+22.3 +18.5 79 +38  1005.9  0.2  751  275           
06 16.06.18 110 (В) 30000 м    10/0 средняя, верхняя 
[Ac cast|Cc]
+24.9 +20.2 75 +44  1007.8  1.9  752  273  +22  +3.4       
09 16.06.18 080 (В) 23000 м    10/4 600 м средняя, верхняя 
[Sc|Ac und|Ci]
+25 +20 74 +43  1009.4  1.6  753  273           
12 16.06.18 060 (СВ) 21000 м  слаб. ливневой дождь  10/8 600 м кучево-дожд., средняя 
[Cb calv|Ac und]
+22.2 +18.8 81 +38  1009.6  0.1  754  276      0.4     
15 16.06.18 350 (С) 40000 м  {ливн. осадки}  10/6 600 м кучево-дожд., средняя 
[Cb calv|Ac und]
+24.9 +17.9 65 +39  1009.1  -0.4  753  274           
18 16.06.18 320 (СЗ) 30000 м  {ливн. осадки}  10/6 1000 м средняя 
[Sc|Ac und]
+23.6 +17.1 67 +36  1008.8  -0.3  753  276    +26.3  0.4     
21 16.06.18 320 (СЗ) 45000 м    10/4 1000 м средняя 
[Sc|Ac und]
+21.7 +17.1 75 +34  1008.9  753  277           
00 17.06.18 330 (СЗ) 45000 м    10/0 средняя 
[Ac und]
+20.5 +16.9 80 +33  1008.7  -0.2  753  278           
03 17.06.18 080 (В) 24000 м    10/6 600 м средняя 
[Sc|Ac und]
+21.3 +18.7 85 +37  1008.5  -0.2  753  277           
06 17.06.18 040 (СВ) 26000 м  в посл. час ливневой дождь  10/8 600 м кучево-дожд., средняя 
[Cb calv|Ac trans]
+21.2 +19 87 +37  1009.3  0.8  753  277  +20    0.8     
09 17.06.18 070 (В) 11000 м  слаб. ливневой дождь  10/10 300 м кучево-дожд. 
[Cb calv]
+22.3 +20.4 89 +42  1009.8  0.5  754  276           
12 17.06.18 090 (В) 18000 м  слаб. ливневой дождь  10/5 600 м кучево-дожд., средняя, верхняя 
[Cb calv|Ac und|Ci sp]
+22.8 +20.9 89 +43  1010  0.3  754  275      0.1     
15 17.06.18 180 (Ю) 45000 м  {ливн. осадки}  9/4 600 м средняя, верхняя 
[Sc diur, vesp|Ac trans|Ci]
+23.6 +17.1 67 +36  1009.5  -0.5  754  276           
18 17.06.18 320 (СЗ) 30000 м  слаб. ливневой дождь  10/8 600 м кучево-дожд., средняя 
[Cb calv|Ac und]
+21.5 +17.9 80 +35  1010.3  0.7  754  278    +24.2  0.1     
21 17.06.18 тихо ()   45000 м  в посл. час ливневой дождь  10/8 600 м кучево-дожд., средняя 
[Cb calv|Ac und]
+21.4 +16.6 74 +33  1010.9  0.6  755  278           
00 18.06.18 010 (С) 45000 м  в посл. час ливневой дождь  10/6 600 м кучево-дожд., средняя 
[Cb calv|Ac und]
+20.7 +15.7 73 +30  1010.3  -0.6  754  279      0.0     
03 18.06.18 тихо ()   35000 м    10/3 600 м средняя, верхняя 
[Sc|Ac trans|Ci fib]
+19.7 +16.7 83 +31  1010.2  -0.1  754  280        <0.5  мокрый или
старый снег
50-90% 
06 18.06.18 360 (С) 26000 м    10/0 средняя, верхняя 
[Ac trans|Ci fib]
+25.8 +17.2 59 +38  1010.5  0.4  754  274  +19.6  +3.5  0.0     
09 18.06.18 080 (В) 27000 м    6/3 600 м средняя, верхняя 
[Cu hum|Ac trans|Ci sp]
+27.1 +12.3 40 +31  1011.4  0.9  755  274           
12 18.06.18 100 (В) 35000 м    8/0 средняя, верхняя 
[Ac trans|Ci fib]
+27.7 +9 31 +28  1011.6  0.2  755  275           
Время (UTC), дата Ветер
(°,м/с) 
Видим.   Явления Облачность Т
(°С)
Тd
(°С)
f(%) Тe
(°С)
Pmin
(гПа)
dP
(гПа)
Po
(мм)
O2
(г/м3)
Тmin Tmax R s Состояние
почвы

Для получения пояснительной информации подведите курсор к названию столбца.

ПОГОДА в Одессе - архив

Всё, что Вы хотите узнать о погоде в Одессе - удобно и подробно!

Выберите нужную дату (начиная с 1 января 2015* года) и нажмите кнопку "Найти".
Будут отображены архивные сводки погоды по пункту Одесса, начиная с указанной даты.


Отображать данные в формате CSV (для использования в таблицах Excel)


Внимание! Наш архив погоды предназначен исключительно для личного некоммерческого использования в познавательных целях. Если Вам необходимы официальные справки о состоянии погоды (для производственных, юридических, коммерческих и т.п. целей), обращайтесь в органы Росгидромета.

*Примечание: данная дата относится к архиву по метеостанциям СССР (Россия, СНГ, Балтия).
Архив по метеостанциям Зарубежной Европы и Азии (кроме Китая) хранится 10 дней, по другим регионам земного шара (Китай, Африка, Америка, Австралия, Океания) - 1 день.

Одесса - район местоположения метеостанции


Название, широта, долгота, высота метеостанции:
Одесса (город) 46.4°ш. 30.8°д. 42 м над ур. моря [Украина]

Дополнительная информация

В oтличие oт бoльшинства пoгoдных сайтoв мы публикуем пoдрoбную метеoинфoрмацию в детальнoм прoфессиoнальнoм фoрмате.

Характеристики температуры и влажнoсти вoздуха измеряются на высoте 2 м в тени вдали oт зданий и деревьев.
Скoрoсть ветра измеряется на высoте 10 м (на урoвне рoста челoвека скoрoсть ветра ниже в 1.5-2 раза). Если метеoстанция нахoдится в гoрoде или в лесу, тo скoрoсть ветра занижена на 2-4 м/с пo сравнению с oткрытым местoм. Скoрoсть ветра над акватoриями крупных рек и oзёр, а также на вершинах хoлмoв на 2-5 м/с выше, чем в oбычных услoвиях.
Атмoсфернoе давление в разных тoчках местнoсти мoжет значительнo oтличаться oт давления на метеoстанции, в зависимoсти oт услoвий рельефа (при пoдъёме на 10 м давление пoнижается примернo на 1 мм рт.ст.).